TimeCDT,TemperatureF,Dew PointF,Humidity,Sea Level PressureIn,VisibilityMPH,Wind Direction,Wind SpeedMPH,Gust SpeedMPH,PrecipitationIn,Events,Conditions,WindDirDegrees,DateUTC
12:15 AM,45.1,36.1,71,30.17,10.0,Calm,Calm,-,N/A,,Clear,0,2012-10-30 05:15:00
12:35 AM,44.8,36.1,72,30.16,7.0,Calm,Calm,-,N/A,,Clear,0,2012-10-30 05:35:00
12:55 AM,41.9,37.8,85,30.16,10.0,Calm,Calm,-,N/A,,Clear,0,2012-10-30 05:55:00
1:15 AM,41.2,37.6,87,30.15,10.0,ESE,3.5,-,N/A,,Clear,120,2012-10-30 06:15:00
1:35 AM,45.9,37.0,71,30.15,7.0,Calm,Calm,-,N/A,,Clear,0,2012-10-30 06:35:00
1:55 AM,45.1,36.5,72,30.15,10.0,Calm,Calm,-,N/A,,Clear,0,2012-10-30 06:55:00
2:15 AM,46.6,36.3,67,30.15,10.0,ESE,3.5,-,N/A,,Clear,120,2012-10-30 07:15:00
2:35 AM,47.5,36.5,66,30.15,10.0,SE,3.5,-,N/A,,Clear,130,2012-10-30 07:35:00
2:55 AM,46.9,36.5,67,30.15,10.0,SE,3.5,-,N/A,,Clear,130,2012-10-30 07:55:00
3:15 AM,44.4,36.7,74,30.14,10.0,Calm,Calm,-,N/A,,Clear,0,2012-10-30 08:15:00
3:35 AM,41.5,36.7,83,30.14,10.0,SE,3.5,-,N/A,,Clear,130,2012-10-30 08:35:00
3:55 AM,42.1,37.9,85,30.14,10.0,ESE,3.5,-,N/A,,Clear,120,2012-10-30 08:55:00
4:15 AM,46.8,36.7,68,30.14,10.0,Calm,Calm,-,N/A,,Clear,0,2012-10-30 09:15:00
4:35 AM,44.2,36.3,74,30.14,10.0,ESE,3.5,-,N/A,,Clear,120,2012-10-30 09:35:00
4:55 AM,44.8,37.4,75,30.13,10.0,ESE,3.5,-,N/A,,Clear,120,2012-10-30 09:55:00
5:15 AM,45.7,37.4,73,30.13,10.0,SE,3.5,-,N/A,,Clear,130,2012-10-30 10:15:00
5:35 AM,45.5,37.4,73,30.13,10.0,SE,3.5,-,N/A,,Clear,140,2012-10-30 10:35:00
5:55 AM,44.2,36.9,75,30.13,10.0,SE,3.5,-,N/A,,Clear,130,2012-10-30 10:55:00
6:15 AM,43.0,37.6,81,30.14,10.0,SE,3.5,-,N/A,,Clear,140,2012-10-30 11:15:00
6:35 AM,42.8,37.6,82,30.15,10.0,Calm,Calm,-,N/A,,Clear,0,2012-10-30 11:35:00
6:55 AM,43.2,37.6,81,30.14,10.0,SE,3.5,-,N/A,,Clear,130,2012-10-30 11:55:00
7:15 AM,42.1,38.1,86,30.14,10.0,ESE,3.5,-,N/A,,Clear,120,2012-10-30 12:15:00
7:35 AM,41.4,38.5,89,30.14,10.0,Calm,Calm,-,N/A,,Clear,0,2012-10-30 12:35:00
7:55 AM,43.3,37.4,80,30.15,10.0,SE,3.5,-,N/A,,Clear,130,2012-10-30 12:55:00
8:15 AM,44.4,37.4,76,30.14,10.0,SE,3.5,-,N/A,,Clear,140,2012-10-30 13:15:00
8:35 AM,46.4,38.5,74,30.14,10.0,SE,3.5,-,N/A,,Clear,140,2012-10-30 13:35:00
8:55 AM,47.8,39.2,72,30.14,10.0,SSE,3.5,-,N/A,,Clear,150,2012-10-30 13:55:00
9:15 AM,50.7,39.4,65,30.14,10.0,SSE,4.6,-,N/A,,Clear,150,2012-10-30 14:15:00
9:35 AM,53.8,39.7,59,30.14,10.0,South,6.9,-,N/A,,Clear,170,2012-10-30 14:35:00
10:15 AM,57.6,39.9,52,30.15,10.0,SSW,4.6,-,N/A,,Clear,210,2012-10-30 15:15:00
10:35 AM,59.5,39.7,48,30.14,10.0,SW,5.8,-,N/A,,Clear,220,2012-10-30 15:35:00
10:55 AM,61.0,40.3,46,30.14,10.0,SW,5.8,-,N/A,,Clear,220,2012-10-30 15:55:00
11:15 AM,62.2,40.1,44,30.13,10.0,SW,5.8,-,N/A,,Clear,220,2012-10-30 16:15:00
11:55 AM,64.9,39.6,39,30.12,10.0,South,10.4,-,N/A,,Clear,190,2012-10-30 16:55:00
12:15 PM,66.2,39.7,38,30.12,10.0,SSW,4.6,-,N/A,,Clear,200,2012-10-30 17:15:00
12:35 PM,67.6,40.1,37,30.11,10.0,South,4.6,-,N/A,,Clear,180,2012-10-30 17:35:00
12:55 PM,68.2,39.2,35,30.10,10.0,SSE,8.1,-,N/A,,Clear,160,2012-10-30 17:55:00
1:15 PM,68.9,39.6,34,30.08,10.0,South,4.6,-,N/A,,Clear,180,2012-10-30 18:15:00
1:35 PM,69.8,40.1,34,30.08,10.0,SE,3.5,-,N/A,,Clear,130,2012-10-30 18:35:00
1:55 PM,70.5,40.6,34,30.07,10.0,SSW,5.8,-,N/A,,Clear,210,2012-10-30 18:55:00
2:15 PM,70.9,41.2,34,30.06,10.0,SW,5.8,-,N/A,,Clear,230,2012-10-30 19:15:00
2:35 PM,71.6,41.7,34,30.05,10.0,WSW,5.8,-,N/A,,Clear,250,2012-10-30 19:35:00
2:55 PM,72.3,41.4,33,30.04,10.0,SSW,6.9,-,N/A,,Clear,200,2012-10-30 19:55:00
3:15 PM,72.1,41.2,33,30.03,10.0,SW,3.5,-,N/A,,Clear,230,2012-10-30 20:15:00
3:35 PM,72.5,41.9,33,30.03,5.0,SSW,4.6,-,N/A,,Haze,210,2012-10-30 20:35:00
3:55 PM,72.0,41.9,34,30.02,10.0,SSW,4.6,-,N/A,,Clear,210,2012-10-30 20:55:00
4:15 PM,72.1,41.7,33,30.01,10.0,SSW,3.5,-,N/A,,Clear,210,2012-10-30 21:15:00
4:35 PM,72.5,42.3,34,30.01,10.0,SW,5.8,-,N/A,,Clear,220,2012-10-30 21:35:00
4:55 PM,71.8,42.1,34,30.00,10.0,South,4.6,-,N/A,,Clear,190,2012-10-30 21:55:00
5:15 PM,71.4,42.1,35,30.00,10.0,South,5.8,-,N/A,,Clear,180,2012-10-30 22:15:00
5:35 PM,70.7,42.3,36,30.00,10.0,South,5.8,-,N/A,,Clear,190,2012-10-30 22:35:00
5:55 PM,69.8,42.8,38,30.01,10.0,South,5.8,-,N/A,,Clear,190,2012-10-30 22:55:00
6:15 PM,68.2,43.5,41,30.01,10.0,South,3.5,-,N/A,,Clear,190,2012-10-30 23:15:00
6:35 PM,66.4,44.8,46,30.01,10.0,Calm,Calm,-,N/A,,Clear,0,2012-10-30 23:35:00
7:15 PM,59.0,49.1,70,30.02,10.0,Calm,Calm,-,N/A,,Clear,0,2012-10-31 00:15:00
7:35 PM,56.8,48.6,74,30.02,10.0,Calm,Calm,-,N/A,,Clear,0,2012-10-31 00:35:00
7:55 PM,55.6,48.4,77,30.02,10.0,Calm,Calm,-,N/A,,Clear,0,2012-10-31 00:55:00
8:15 PM,54.7,48.4,79,30.02,10.0,Calm,Calm,-,N/A,,Clear,0,2012-10-31 01:15:00
8:35 PM,55.9,46.0,69,30.02,10.0,Calm,Calm,-,N/A,,Clear,0,2012-10-31 01:35:00
8:55 PM,52.3,47.3,83,30.02,10.0,SSE,3.5,-,N/A,,Clear,150,2012-10-31 01:55:00
9:15 PM,56.8,46.4,68,30.01,10.0,SSE,4.6,-,N/A,,Clear,150,2012-10-31 02:15:00
9:35 PM,56.3,46.2,69,30.02,10.0,SE,3.5,-,N/A,,Clear,140,2012-10-31 02:35:00
9:55 PM,56.5,45.5,67,30.02,10.0,Calm,Calm,-,N/A,,Clear,0,2012-10-31 02:55:00
10:15 PM,54.3,45.9,73,30.03,10.0,Calm,Calm,-,N/A,,Clear,0,2012-10-31 03:15:00
10:35 PM,54.3,45.3,72,30.02,10.0,SSE,3.5,-,N/A,,Clear,150,2012-10-31 03:35:00
10:55 PM,55.8,45.0,67,30.02,10.0,SSE,3.5,-,N/A,,Clear,160,2012-10-31 03:55:00
11:15 PM,55.0,45.0,69,30.01,10.0,SE,3.5,-,N/A,,Clear,140,2012-10-31 04:15:00
11:35 PM,55.0,44.8,68,30.01,10.0,SSE,3.5,-,N/A,,Clear,150,2012-10-31 04:35:00
11:55 PM,53.8,44.8,72,30.01,10.0,Calm,Calm,-,N/A,,Clear,0,2012-10-31 04:55:00